Home   Weather   Fairfield Bridge   Past weeks
Flag for Ireland

Past Weather in Fairfield Bridge, Ireland — Yesterday and Last 2 Weeks

Now
51 °F

Cool.


Feels Like: 49 °F
Forecast: 55 / 47 °F
Wind: 5 mph from South

Location: Valentia Observatory

Current Time: Dec 7, 2019 at 8:59:56 am

Latest Report: Dec 7, 2019 at 8:00 am


Visibility: 6 mi

Pressure: 29.90 "Hg

Humidity: 92%

Dew Point: 49 °F

Location of Fairfield BridgeLocation

Past Weather in Fairfield Bridge — Graph

°F

Fairfield Bridge Temperature Yesterday

Maximum temperature yesterday: 53 °F (at 1:00 am)
Minimum temperature yesterday: 47 °F (at 11:00 pm)
Average temperature yesterday: 51 °F

High & Low Weather Summary for the Past Weeks

 TemperatureHumidityPressure
High53 °F (Nov 30, 1:00 pm)100% (Nov 25, 2:00 am)30.56 "Hg (Nov 25, 2:00 am)
Low30 °F (Dec 2, 6:00 am)67% (Nov 30, 10:00 am)28.61 "Hg (Nov 26, 1:00 pm)
Average48 °F86%29.71 "Hg
* Reported Nov 22 7:00 am — Dec 7 7:00 am, Fairfield Bridge. Weather by CustomWeather, © 2019

Note: Actual official high and low records may vary slightly from our data, if they occured in-between our weather recording intervals... More about our weather records

Fairfield Bridge Weather History for the Previous 24 Hours

Scroll right to see more
 ConditionsComfort  
Time TempWeatherWind HumidityBarometerVisibility
7:00 am
Sat, Dec 7
51 °FCool.5 mph92%29.91 "Hg8 mi
6:00 am50 °FCool.5 mph93%29.91 "Hg11 mi
5:00 am50 °FCool.5 mph94%29.91 "Hg10 mi
4:00 am49 °FCool.3 mph95%29.91 "Hg10 mi
3:00 am49 °FCool.3 mph94%29.93 "Hg14 mi
2:00 am48 °FCool.3 mph94%29.93 "Hg14 mi
1:00 am47 °FCool.3 mph94%29.93 "Hg13 mi
12:00 am47 °FCool.3 mph94%29.93 "Hg13 mi
11:00 pm
Fri, Dec 6
47 °FCool.3 mph93%29.92 "Hg11 mi
10:00 pm48 °FCool.3 mph93%29.91 "Hg8 mi
9:00 pm48 °FCool.3 mph91%29.90 "Hg8 mi
8:00 pm50 °FCool.6 mph84%29.89 "Hg13 mi
7:00 pm50 °FCool.7 mph81%29.87 "Hg11 mi
6:00 pm49 °FCool.8 mph82%29.85 "Hg9 mi
5:00 pm50 °FCool.8 mph83%29.83 "Hg7 mi
4:00 pm50 °FCool.8 mph83%29.80 "Hg9 mi
3:00 pm51 °FCool.8 mph82%29.78 "Hg9 mi
2:00 pm50 °FRain showers. Cloudy.8 mph81%29.78 "Hg19 mi
1:00 pm51 °FCool.8 mph79%29.77 "Hg8 mi
12:00 pm52 °FCool.9 mph81%29.76 "Hg8 mi
11:00 am51 °FCool.9 mph83%29.76 "Hg7 mi
10:00 am50 °FCool.7 mph91%29.73 "Hg7 mi
9:00 am51 °FCool.9 mph88%29.71 "Hg7 mi
8:00 am51 °FCool.7 mph92%29.70 "Hg4 mi
Weather by CustomWeather, © 2019

See weather overview

Advertising